FDX351 KEWR-KOAK

Flight info

Callsign FDX351
Flight time 5h 20m
Altitude 38000
Route NEWEL J60 DJB FWA KG63M STRUK Q42 LEWRP KK60G KK60E KP60C KD60Y/N0485F400 BRAFF Q126 DRRSI DTA TATOO RPARK OAKES3
Aircraft B77L/H-SDE1E2E3FGHIJ2J3J4J5M1RWXY/LB1D1

Departure

Time 2026-04-23 12:09
Airport Newark Liberty International Airport (KEWR)

Arrival

Time 2026-04-23 17:30
Airport San Francisco Bay Oakland International Airport (KOAK)
Time Latitude Longitude Altitude Speed Heading
2026-04-23 11:42 40.67994 -74.18195 28 ft 0 kts 295°
2026-04-23 11:59 40.67987 -74.18170 27 ft 4 kts 279°
2026-04-23 11:59 40.67988 -74.18137 25 ft 4 kts 244°
2026-04-23 12:00 40.68003 -74.18113 28 ft 2 kts 214°
2026-04-23 12:00 40.68004 -74.18112 28 ft 2 kts 213°
2026-04-23 12:02 40.68003 -74.18112 28 ft 0 kts 213°
2026-04-23 12:02 40.68000 -74.18115 28 ft 2 kts 213°
2026-04-23 12:02 40.67979 -74.18133 28 ft 5 kts 213°
2026-04-23 12:03 40.67944 -74.18160 28 ft 7 kts 207°
2026-04-23 12:03 40.67893 -74.18192 28 ft 9 kts 206°
2026-04-23 12:03 40.67835 -74.18229 29 ft 10 kts 206°
2026-04-23 12:03 40.67772 -74.18269 29 ft 11 kts 204°
2026-04-23 12:04 40.67705 -74.18243 29 ft 12 kts 115°
2026-04-23 12:04 40.67665 -74.18147 29 ft 13 kts 128°
2026-04-23 12:04 40.67611 -74.18059 25 ft 11 kts 130°
2026-04-23 12:04 40.67566 -74.17969 27 ft 12 kts 101°
2026-04-23 12:05 40.67622 -74.17889 32 ft 14 kts 26°
2026-04-23 12:05 40.67629 -74.17884 29 ft 0 kts 26°
2026-04-23 12:09 40.67630 -74.17884 29 ft 1 kts 26°
2026-04-23 12:09 40.67709 -74.17834 25 ft 35 kts 26°
2026-04-23 12:09 40.68331 -74.17441 55 ft 158 kts 26°
2026-04-23 12:09 40.69372 -74.16734 1396 ft 168 kts 20°
2026-04-23 12:10 40.70416 -74.16683 2692 ft 145 kts 333°
2026-04-23 12:10 40.71091 -74.17771 3263 ft 174 kts 292°
2026-04-23 12:10 40.71454 -74.19434 3589 ft 205 kts 291°
2026-04-23 12:10 40.71929 -74.21369 3964 ft 236 kts 291°
2026-04-23 12:11 40.72426 -74.23451 4957 ft 239 kts 290°
2026-04-23 12:11 40.72907 -74.25541 6000 ft 244 kts 290°
2026-04-23 12:11 40.73391 -74.27699 7057 ft 247 kts 289°
2026-04-23 12:11 40.73873 -74.29884 8146 ft 249 kts 289°
2026-04-23 12:12 40.74353 -74.32081 9307 ft 249 kts 289°
2026-04-23 12:12 40.74829 -74.34280 10403 ft 252 kts 289°
2026-04-23 12:12 40.75328 -74.36582 11002 ft 274 kts 289°
2026-04-23 12:12 40.75885 -74.39150 11272 ft 309 kts 288°
2026-04-23 12:13 40.76502 -74.42017 11706 ft 335 kts 288°
2026-04-23 12:13 40.77142 -74.45018 12755 ft 344 kts 288°
2026-04-23 12:13 40.77790 -74.48081 13945 ft 350 kts 288°
2026-04-23 12:13 40.78447 -74.51191 15061 ft 354 kts 288°
2026-04-23 12:14 40.79112 -74.54344 16188 ft 358 kts 288°
2026-04-23 12:14 40.79786 -74.57528 17274 ft 363 kts 289°
2026-04-23 12:14 40.80468 -74.60754 18315 ft 368 kts 289°
2026-04-23 12:14 40.81160 -74.64036 19216 ft 373 kts 289°
2026-04-23 12:15 40.81859 -74.67355 20134 ft 378 kts 289°
2026-04-23 12:15 40.82566 -74.70715 21041 ft 382 kts 289°
2026-04-23 12:15 40.83278 -74.74109 21922 ft 387 kts 289°
2026-04-23 12:15 40.84002 -74.77559 22804 ft 392 kts 290°
2026-04-23 12:16 40.84732 -74.81049 23675 ft 397 kts 290°
2026-04-23 12:16 40.85469 -74.84578 24372 ft 401 kts 290°
2026-04-23 12:16 40.86214 -74.88152 25091 ft 406 kts 290°
2026-04-23 12:16 40.86966 -74.91767 25804 ft 410 kts 291°
2026-04-23 12:17 40.87726 -74.95423 26505 ft 414 kts 291°
2026-04-23 12:17 40.88489 -74.99103 27190 ft 419 kts 291°
2026-04-23 12:17 40.89261 -75.02830 27844 ft 423 kts 291°
2026-04-23 12:17 40.90043 -75.06607 28478 ft 427 kts 292°
2026-04-23 12:18 40.90825 -75.10416 28993 ft 431 kts 291°
2026-04-23 12:18 40.91356 -75.14402 29414 ft 449 kts 282°
2026-04-23 12:18 40.91338 -75.18583 29926 ft 463 kts 274°
2026-04-23 12:18 40.90898 -75.22851 30462 ft 474 kts 267°
2026-04-23 12:19 40.89952 -75.27062 31145 ft 480 kts 259°
2026-04-23 12:19 40.88867 -75.31154 31940 ft 474 kts 261°
2026-04-23 12:19 40.87852 -75.35332 32735 ft 468 kts 262°
2026-04-23 12:19 40.86908 -75.39365 33434 ft 464 kts 262°
2026-04-23 12:20 40.85947 -75.43483 34070 ft 462 kts 262°
2026-04-23 12:20 40.85007 -75.47472 34571 ft 461 kts 261°
2026-04-23 12:20 40.84053 -75.51502 35067 ft 459 kts 261°
2026-04-23 12:20 40.83098 -75.55521 35578 ft 458 kts 261°
2026-04-23 12:21 40.82146 -75.59523 36078 ft 456 kts 261°
2026-04-23 12:21 40.81195 -75.63515 36575 ft 454 kts 261°
2026-04-23 12:21 40.80248 -75.67484 37061 ft 453 kts 261°
2026-04-23 12:21 40.79304 -75.71434 37531 ft 452 kts 261°
2026-04-23 12:22 40.78360 -75.75379 37987 ft 451 kts 261°
2026-04-23 12:22 40.77415 -75.79336 37989 ft 456 kts 261°
2026-04-23 12:22 40.75499 -75.87317 38035 ft 454 kts 261°
2026-04-23 12:23 40.73596 -75.95189 38041 ft 449 kts 261°
2026-04-23 12:23 40.71704 -76.03019 38058 ft 448 kts 261°
2026-04-23 12:24 40.69804 -76.10859 38073 ft 449 kts 261°
2026-04-23 12:24 40.67916 -76.18696 38077 ft 446 kts 263°
2026-04-23 12:25 40.67339 -76.22665 38076 ft 435 kts 273°
2026-04-23 12:25 40.67252 -76.26608 38088 ft 428 kts 279°
2026-04-23 12:25 40.68090 -76.34262 38092 ft 420 kts 288°
2026-04-23 12:26 40.69273 -76.41835 38094 ft 423 kts 288°
2026-04-23 12:26 40.70417 -76.49464 38084 ft 425 kts 288°
2026-04-23 12:27 40.71544 -76.57068 38064 ft 426 kts 287°
2026-04-23 12:27 40.72676 -76.64736 38065 ft 426 kts 287°
2026-04-23 12:28 40.73804 -76.72412 38051 ft 426 kts 287°
2026-04-23 12:28 40.74925 -76.80079 38055 ft 427 kts 287°
2026-04-23 12:29 40.76046 -76.87763 38019 ft 427 kts 287°
2026-04-23 12:29 40.77159 -76.95444 38040 ft 426 kts 287°
2026-04-23 12:30 40.78266 -77.03128 38055 ft 426 kts 287°
2026-04-23 12:30 40.79370 -77.10813 38037 ft 426 kts 287°
2026-04-23 12:31 40.80465 -77.18485 38051 ft 426 kts 287°
2026-04-23 12:31 40.81558 -77.26172 38020 ft 425 kts 287°
2026-04-23 12:32 40.82643 -77.33846 38038 ft 426 kts 287°
2026-04-23 12:32 40.83729 -77.41555 38039 ft 428 kts 287°
2026-04-23 12:33 40.84804 -77.49296 38046 ft 429 kts 287°
2026-04-23 12:33 40.85869 -77.57054 38043 ft 429 kts 287°
2026-04-23 12:34 40.86930 -77.64811 38043 ft 429 kts 287°
2026-04-23 12:34 40.87988 -77.72571 38051 ft 430 kts 287°
2026-04-23 12:35 40.89046 -77.80351 38041 ft 430 kts 287°
2026-04-23 12:35 40.90098 -77.88125 38090 ft 430 kts 287°
2026-04-23 12:36 40.91146 -77.95904 38050 ft 430 kts 287°
2026-04-23 12:36 40.92166 -78.03650 38068 ft 430 kts 286°
2026-04-23 12:37 40.93135 -78.11455 38074 ft 431 kts 285°
2026-04-23 12:37 40.94102 -78.19274 38068 ft 431 kts 285°
2026-04-23 12:38 40.95070 -78.27095 38076 ft 431 kts 285°
2026-04-23 12:38 40.96036 -78.34925 38084 ft 431 kts 285°
2026-04-23 12:39 40.96995 -78.42747 38084 ft 431 kts 285°
2026-04-23 12:39 40.97942 -78.50591 38084 ft 431 kts 285°
2026-04-23 12:40 40.98878 -78.58436 38082 ft 431 kts 285°
2026-04-23 12:40 40.99808 -78.66272 38076 ft 431 kts 285°
2026-04-23 12:41 41.00733 -78.74108 38069 ft 431 kts 285°
2026-04-23 12:41 41.01655 -78.81957 38081 ft 432 kts 285°
2026-04-23 12:42 41.02576 -78.89830 38091 ft 433 kts 285°
2026-04-23 12:42 41.03490 -78.97715 38086 ft 433 kts 285°
2026-04-23 12:43 41.04401 -79.05602 38078 ft 434 kts 285°
2026-04-23 12:43 41.05305 -79.13499 38075 ft 434 kts 285°
2026-04-23 12:44 41.06205 -79.21408 38083 ft 434 kts 285°
2026-04-23 12:44 41.07101 -79.29323 38078 ft 435 kts 285°
2026-04-23 12:45 41.07994 -79.37257 38081 ft 435 kts 285°
2026-04-23 12:45 41.08882 -79.45204 38069 ft 436 kts 285°
2026-04-23 12:46 41.09765 -79.53156 38084 ft 437 kts 284°
2026-04-23 12:46 41.10645 -79.61132 38083 ft 437 kts 284°
2026-04-23 12:47 41.11518 -79.69100 38094 ft 437 kts 284°
2026-04-23 12:47 41.12386 -79.77077 38101 ft 437 kts 284°
2026-04-23 12:48 41.13104 -79.83712 38090 ft 437 kts 284°
2026-04-23 12:48 41.14108 -79.93048 38100 ft 437 kts 284°
2026-04-23 12:49 41.14818 -79.99690 38101 ft 438 kts 284°
2026-04-23 12:49 41.15806 -80.09002 38111 ft 439 kts 284°
2026-04-23 12:50 41.16514 -80.15716 38107 ft 439 kts 284°
2026-04-23 12:50 41.17354 -80.23753 38107 ft 439 kts 283°
2026-04-23 12:51 41.18189 -80.31790 38121 ft 440 kts 283°
2026-04-23 12:51 41.19022 -80.39852 38107 ft 441 kts 283°
2026-04-23 12:52 41.19852 -80.47934 38099 ft 442 kts 283°
2026-04-23 12:52 41.20679 -80.56012 38080 ft 442 kts 283°
2026-04-23 12:53 41.21501 -80.64093 38089 ft 442 kts 283°
2026-04-23 12:53 41.22319 -80.72194 38094 ft 442 kts 283°
2026-04-23 12:54 41.23131 -80.80294 38094 ft 443 kts 283°
2026-04-23 12:54 41.23937 -80.88403 38088 ft 443 kts 283°
2026-04-23 12:55 41.24738 -80.96511 38073 ft 443 kts 282°
2026-04-23 12:55 41.25533 -81.04621 38094 ft 443 kts 282°
2026-04-23 12:56 41.26324 -81.12755 38099 ft 444 kts 282°
2026-04-23 12:56 41.27109 -81.20884 38105 ft 444 kts 282°
2026-04-23 12:57 41.27890 -81.29028 38081 ft 444 kts 282°
2026-04-23 12:57 41.28664 -81.37163 38095 ft 444 kts 282°
2026-04-23 12:58 41.29434 -81.45321 38093 ft 444 kts 282°
2026-04-23 12:58 41.30198 -81.53475 38088 ft 445 kts 282°
2026-04-23 12:59 41.30955 -81.61639 38075 ft 445 kts 281°
2026-04-23 12:59 41.31697 -81.69810 38060 ft 445 kts 281°
2026-04-23 13:00 41.32431 -81.77978 38069 ft 445 kts 281°
2026-04-23 13:00 41.33163 -81.86160 38077 ft 445 kts 281°
2026-04-23 13:01 41.33890 -81.94350 38082 ft 446 kts 281°
2026-04-23 13:01 41.34612 -82.02548 38103 ft 446 kts 281°
2026-04-23 13:02 41.35330 -82.10764 38100 ft 447 kts 280°
2026-04-23 13:02 41.35468 -82.19009 38100 ft 452 kts 270°
2026-04-23 13:03 41.34577 -82.27340 38106 ft 455 kts 266°
2026-04-23 13:03 41.33606 -82.35667 38086 ft 455 kts 266°
2026-04-23 13:04 41.32655 -82.43998 38077 ft 455 kts 265°
2026-04-23 13:04 41.31705 -82.52316 38056 ft 455 kts 265°
2026-04-23 13:05 41.30748 -82.60644 38066 ft 456 kts 265°
2026-04-23 13:05 41.29783 -82.68976 38062 ft 456 kts 265°
2026-04-23 13:06 41.28321 -82.81497 38052 ft 457 kts 265°
2026-04-23 13:07 41.27338 -82.89843 38067 ft 457 kts 264°
2026-04-23 13:07 41.26348 -82.98186 38067 ft 457 kts 264°
2026-04-23 13:08 41.25351 -83.06547 38063 ft 458 kts 264°
2026-04-23 13:08 41.24349 -83.14893 38061 ft 458 kts 264°
2026-04-23 13:09 41.23341 -83.23243 38057 ft 457 kts 264°
2026-04-23 13:09 41.22329 -83.31561 38053 ft 456 kts 264°
2026-04-23 13:10 41.21311 -83.39885 38054 ft 456 kts 264°
2026-04-23 13:10 41.20290 -83.48185 38055 ft 456 kts 264°
2026-04-23 13:11 41.19262 -83.56486 38051 ft 455 kts 264°
2026-04-23 13:11 41.18230 -83.64770 38060 ft 455 kts 264°
2026-04-23 13:12 41.17192 -83.73050 38047 ft 455 kts 264°
2026-04-23 13:12 41.16150 -83.81318 38071 ft 455 kts 264°
2026-04-23 13:13 41.15100 -83.89596 38079 ft 455 kts 264°
2026-04-23 13:13 41.14044 -83.97876 38078 ft 455 kts 264°
2026-04-23 13:14 41.12983 -84.06138 38081 ft 454 kts 264°
2026-04-23 13:14 41.11917 -84.14395 38075 ft 454 kts 264°
2026-04-23 13:15 41.10845 -84.22650 38072 ft 454 kts 264°
2026-04-23 13:15 41.09768 -84.30897 38054 ft 454 kts 263°
2026-04-23 13:16 41.08686 -84.39130 38057 ft 453 kts 263°
2026-04-23 13:16 41.07607 -84.47296 38057 ft 452 kts 263°
2026-04-23 13:17 41.06516 -84.55504 38059 ft 452 kts 263°
2026-04-23 13:17 41.05420 -84.63709 38059 ft 452 kts 263°
2026-04-23 13:18 41.04318 -84.71910 38060 ft 452 kts 263°
2026-04-23 13:18 41.03212 -84.80094 38061 ft 451 kts 263°
2026-04-23 13:19 41.02102 -84.88261 38059 ft 451 kts 263°
2026-04-23 13:19 41.00986 -84.96431 38064 ft 451 kts 263°
2026-04-23 13:20 40.99863 -85.04604 38072 ft 451 kts 263°
2026-04-23 13:20 40.98738 -85.12764 38081 ft 451 kts 262°
2026-04-23 13:21 40.97594 -85.20924 38071 ft 451 kts 262°
2026-04-23 13:21 40.96324 -85.29057 38079 ft 451 kts 261°
2026-04-23 13:22 40.95010 -85.37181 38058 ft 451 kts 261°
2026-04-23 13:22 40.93704 -85.45300 38057 ft 451 kts 261°
2026-04-23 13:23 40.92413 -85.53351 38062 ft 451 kts 261°
2026-04-23 13:23 40.91112 -85.61450 38055 ft 450 kts 261°
2026-04-23 13:24 40.89806 -85.69544 38058 ft 450 kts 261°
2026-04-23 13:24 40.88495 -85.77629 38050 ft 450 kts 260°
2026-04-23 13:25 40.87177 -85.85715 38046 ft 450 kts 260°
2026-04-23 13:25 40.85857 -85.93782 38031 ft 450 kts 260°
2026-04-23 13:26 40.84527 -86.01867 38044 ft 450 kts 260°
2026-04-23 13:26 40.83194 -86.09936 38033 ft 450 kts 260°
2026-04-23 13:27 40.81852 -86.18017 38039 ft 450 kts 260°
2026-04-23 13:27 40.80509 -86.26068 38033 ft 449 kts 260°
2026-04-23 13:28 40.79160 -86.34122 38029 ft 449 kts 260°
2026-04-23 13:28 40.77808 -86.42157 38065 ft 448 kts 260°
2026-04-23 13:29 40.76453 -86.50172 38064 ft 448 kts 259°
2026-04-23 13:29 40.75091 -86.58194 38050 ft 448 kts 259°
2026-04-23 13:30 40.73734 -86.66148 38047 ft 447 kts 259°
2026-04-23 13:30 40.72367 -86.74127 38040 ft 446 kts 259°
2026-04-23 13:31 40.70996 -86.82092 38035 ft 446 kts 259°
2026-04-23 13:31 40.69619 -86.90061 38037 ft 445 kts 259°
2026-04-23 13:32 40.68238 -86.98013 38041 ft 445 kts 259°
2026-04-23 13:32 40.66856 -87.05942 38037 ft 444 kts 259°
2026-04-23 13:33 40.65468 -87.13865 38033 ft 444 kts 259°
2026-04-23 13:33 40.64074 -87.21790 38026 ft 443 kts 259°
2026-04-23 13:34 40.62678 -87.29694 38024 ft 443 kts 258°
2026-04-23 13:34 40.61506 -87.36308 38031 ft 443 kts 258°
2026-04-23 13:35 40.60102 -87.44194 38023 ft 443 kts 258°
2026-04-23 13:35 40.58701 -87.52030 38023 ft 442 kts 258°
2026-04-23 13:36 40.57289 -87.59895 38022 ft 442 kts 258°
2026-04-23 13:36 40.55873 -87.67753 38022 ft 442 kts 258°
2026-04-23 13:37 40.54450 -87.75614 38022 ft 441 kts 257°
2026-04-23 13:37 40.53024 -87.83457 38021 ft 441 kts 257°
2026-04-23 13:38 40.51595 -87.91297 38022 ft 441 kts 257°
2026-04-23 13:38 40.50165 -87.99122 38022 ft 441 kts 258°
2026-04-23 13:39 40.49171 -88.07063 38019 ft 440 kts 263°
2026-04-23 13:39 40.48373 -88.15030 38030 ft 440 kts 262°
2026-04-23 13:40 40.47551 -88.22999 38031 ft 440 kts 262°
2026-04-23 13:40 40.46703 -88.30971 38029 ft 441 kts 262°
2026-04-23 13:41 40.45843 -88.38928 38022 ft 440 kts 262°
2026-04-23 13:41 40.44976 -88.46882 38023 ft 440 kts 262°
2026-04-23 13:42 40.44105 -88.54831 38022 ft 440 kts 262°
2026-04-23 13:42 40.43230 -88.62766 38019 ft 439 kts 261°
2026-04-23 13:43 40.42350 -88.70697 38024 ft 439 kts 261°
2026-04-23 13:43 40.41465 -88.78624 38025 ft 439 kts 261°
2026-04-23 13:44 40.40576 -88.86535 38037 ft 439 kts 261°
2026-04-23 13:44 40.39680 -88.94458 38027 ft 439 kts 261°
2026-04-23 13:45 40.38778 -89.02379 38027 ft 439 kts 261°
2026-04-23 13:45 40.37872 -89.10291 38003 ft 439 kts 261°
2026-04-23 13:46 40.36965 -89.18157 38006 ft 439 kts 261°
2026-04-23 13:46 40.36047 -89.26076 38010 ft 439 kts 260°
2026-04-23 13:47 40.35122 -89.34007 38002 ft 440 kts 260°
2026-04-23 13:47 40.34191 -89.41935 38001 ft 440 kts 260°
2026-04-23 13:48 40.33254 -89.49868 38000 ft 441 kts 260°
2026-04-23 13:48 40.32311 -89.57806 37992 ft 441 kts 260°
2026-04-23 13:49 40.31363 -89.65741 37990 ft 441 kts 260°
2026-04-23 13:49 40.30410 -89.73667 37977 ft 441 kts 260°
2026-04-23 13:50 40.29451 -89.81594 37978 ft 441 kts 260°
2026-04-23 13:50 40.28488 -89.89512 37977 ft 441 kts 260°
2026-04-23 13:51 40.27518 -89.97441 37980 ft 440 kts 260°
2026-04-23 13:51 40.26544 -90.05356 37970 ft 441 kts 259°
2026-04-23 13:52 40.25563 -90.13278 37973 ft 441 kts 259°
2026-04-23 13:52 40.24580 -90.21184 37963 ft 441 kts 259°
2026-04-23 13:53 40.23590 -90.29110 37968 ft 441 kts 260°
2026-04-23 13:53 40.23147 -90.37120 37964 ft 442 kts 266°
2026-04-23 13:54 40.22907 -90.45156 37964 ft 442 kts 265°
2026-04-23 13:54 40.22626 -90.53192 37953 ft 443 kts 265°
2026-04-23 13:55 40.22334 -90.61240 37951 ft 443 kts 265°
2026-04-23 13:55 40.22039 -90.69286 37951 ft 443 kts 265°
2026-04-23 13:56 40.21741 -90.77330 37957 ft 443 kts 265°
2026-04-23 13:56 40.21438 -90.85328 37945 ft 443 kts 265°
2026-04-23 13:57 40.21129 -90.93373 37929 ft 443 kts 265°
2026-04-23 13:57 40.20814 -91.01414 37929 ft 443 kts 265°
2026-04-23 13:58 40.20493 -91.09455 37917 ft 442 kts 265°
2026-04-23 13:58 40.20167 -91.17491 37933 ft 442 kts 265°
2026-04-23 13:59 40.19835 -91.25534 37912 ft 443 kts 265°
2026-04-23 13:59 40.19498 -91.33562 37915 ft 442 kts 265°
2026-04-23 14:00 40.19213 -91.40244 37908 ft 442 kts 264°
2026-04-23 14:00 40.18807 -91.49635 37915 ft 442 kts 264°
2026-04-23 14:01 40.18453 -91.57658 37917 ft 442 kts 264°
2026-04-23 14:01 40.18094 -91.65684 37907 ft 442 kts 264°
2026-04-23 14:02 40.17729 -91.73715 37900 ft 443 kts 264°
2026-04-23 14:02 40.17359 -91.81751 37907 ft 443 kts 264°
2026-04-23 14:03 40.16984 -91.89740 37914 ft 443 kts 264°
2026-04-23 14:03 40.16600 -91.97832 37903 ft 443 kts 264°
2026-04-23 14:04 40.16212 -92.05875 37896 ft 444 kts 264°
2026-04-23 14:04 40.15821 -92.13867 37895 ft 444 kts 264°
2026-04-23 14:05 40.15421 -92.21929 37887 ft 445 kts 264°
2026-04-23 14:05 40.15015 -92.30003 37885 ft 445 kts 264°
2026-04-23 14:06 40.14604 -92.38063 37884 ft 445 kts 264°
2026-04-23 14:06 40.14187 -92.46132 37878 ft 445 kts 264°
2026-04-23 14:07 40.13765 -92.54210 37882 ft 445 kts 264°
2026-04-23 14:07 40.12967 -92.66286 37880 ft 444 kts 261°
2026-04-23 14:08 40.12187 -92.74295 37880 ft 445 kts 262°
2026-04-23 14:08 40.11413 -92.82301 37862 ft 444 kts 262°
2026-04-23 14:09 40.10664 -92.90308 37855 ft 444 kts 262°
2026-04-23 14:09 40.09921 -92.98317 37855 ft 444 kts 262°
2026-04-23 14:10 40.09174 -93.06320 37862 ft 444 kts 262°
2026-04-23 14:10 40.08419 -93.14340 37846 ft 445 kts 262°
2026-04-23 14:11 40.07660 -93.22344 37835 ft 444 kts 262°
2026-04-23 14:11 40.06895 -93.30348 37838 ft 444 kts 262°
2026-04-23 14:12 40.06125 -93.38349 37830 ft 445 kts 262°
2026-04-23 14:12 40.05348 -93.46353 37829 ft 445 kts 262°
2026-04-23 14:13 40.04566 -93.54362 37819 ft 445 kts 262°
2026-04-23 14:13 40.03778 -93.62364 37819 ft 445 kts 262°
2026-04-23 14:14 40.02990 -93.70312 37820 ft 444 kts 262°
2026-04-23 14:14 40.02192 -93.78312 37818 ft 444 kts 261°
2026-04-23 14:15 40.01389 -93.86305 37810 ft 445 kts 261°
2026-04-23 14:15 40.00579 -93.94314 37808 ft 445 kts 261°
2026-04-23 14:16 39.99951 -94.02348 37799 ft 447 kts 268°
2026-04-23 14:16 40.00075 -94.10469 37816 ft 447 kts 269°
2026-04-23 14:17 40.00150 -94.18593 37812 ft 448 kts 268°
2026-04-23 14:17 40.00201 -94.26705 37819 ft 448 kts 267°
2026-04-23 14:18 40.00245 -94.34832 37816 ft 448 kts 267°
2026-04-23 14:18 40.00287 -94.42961 37799 ft 448 kts 267°
2026-04-23 14:19 40.00324 -94.51073 37777 ft 448 kts 267°
2026-04-23 14:19 40.00356 -94.59191 37777 ft 447 kts 267°
2026-04-23 14:20 40.00382 -94.67289 37764 ft 446 kts 266°
2026-04-23 14:20 40.00401 -94.75372 37764 ft 445 kts 266°
2026-04-23 14:21 40.00414 -94.82083 37767 ft 445 kts 266°
2026-04-23 14:21 40.00423 -94.90148 37770 ft 444 kts 266°
2026-04-23 14:22 40.00427 -94.98210 37782 ft 445 kts 266°
2026-04-23 14:22 40.00426 -95.06277 37755 ft 445 kts 266°
2026-04-23 14:23 40.00419 -95.14332 37758 ft 444 kts 266°
2026-04-23 14:23 40.00406 -95.22382 37740 ft 444 kts 266°
2026-04-23 14:24 40.00388 -95.30442 37736 ft 444 kts 266°
2026-04-23 14:24 40.00364 -95.38502 37723 ft 444 kts 266°
2026-04-23 14:25 40.00335 -95.46550 37723 ft 443 kts 266°
2026-04-23 14:25 40.00300 -95.54571 37721 ft 443 kts 266°
2026-04-23 14:26 40.00260 -95.62600 37711 ft 442 kts 266°
2026-04-23 14:26 40.00214 -95.70623 37705 ft 442 kts 266°
2026-04-23 14:27 40.00162 -95.78640 37703 ft 442 kts 265°
2026-04-23 14:27 40.00106 -95.86612 37693 ft 442 kts 265°
2026-04-23 14:28 40.00045 -95.94628 37682 ft 442 kts 265°
2026-04-23 14:28 39.99992 -96.02654 37683 ft 443 kts 266°
2026-04-23 14:29 40.00049 -96.10684 37706 ft 444 kts 267°
2026-04-23 14:29 40.00131 -96.18757 37681 ft 445 kts 267°
2026-04-23 14:30 40.00196 -96.26818 37671 ft 445 kts 266°
2026-04-23 14:30 40.00247 -96.34887 37671 ft 445 kts 266°
2026-04-23 14:31 40.00289 -96.42954 37666 ft 445 kts 266°
2026-04-23 14:31 40.00325 -96.51024 37674 ft 445 kts 266°
2026-04-23 14:32 40.00356 -96.59107 37677 ft 445 kts 266°
2026-04-23 14:32 40.00382 -96.67177 37678 ft 445 kts 266°
2026-04-23 14:33 40.00402 -96.75255 37675 ft 446 kts 266°
2026-04-23 14:33 40.00416 -96.83338 37660 ft 446 kts 266°
2026-04-23 14:34 40.00425 -96.91430 37663 ft 446 kts 266°
2026-04-23 14:34 40.00428 -96.99501 37638 ft 445 kts 266°
2026-04-23 14:35 40.00426 -97.07524 37642 ft 445 kts 266°
2026-04-23 14:35 40.00418 -97.15579 37627 ft 444 kts 266°
2026-04-23 14:36 40.00404 -97.23626 37639 ft 444 kts 266°
2026-04-23 14:36 40.00385 -97.31674 37628 ft 444 kts 266°
2026-04-23 14:37 40.00361 -97.39731 37629 ft 444 kts 266°
2026-04-23 14:37 40.00330 -97.47778 37627 ft 444 kts 266°
2026-04-23 14:38 40.00294 -97.55826 37630 ft 444 kts 266°
2026-04-23 14:38 40.00253 -97.63882 37646 ft 444 kts 266°
2026-04-23 14:39 40.00207 -97.71927 37628 ft 443 kts 266°
2026-04-23 14:39 40.00155 -97.79936 37619 ft 441 kts 266°
2026-04-23 14:40 40.00097 -97.87925 37617 ft 440 kts 265°
2026-04-23 14:40 40.00035 -97.95895 37616 ft 439 kts 265°
2026-04-23 14:41 40.00005 -98.03845 37621 ft 438 kts 266°
2026-04-23 14:41 40.00143 -98.11769 37615 ft 436 kts 267°
2026-04-23 14:42 40.00302 -98.19671 37618 ft 435 kts 267°
2026-04-23 14:42 40.00438 -98.27552 37620 ft 434 kts 267°
2026-04-23 14:43 40.00555 -98.35423 37656 ft 434 kts 267°
2026-04-23 14:43 40.00664 -98.43290 37624 ft 433 kts 266°
2026-04-23 14:44 40.00766 -98.51136 37621 ft 432 kts 266°
2026-04-23 14:44 40.00864 -98.58951 37623 ft 431 kts 266°
2026-04-23 14:45 40.00955 -98.66758 37623 ft 430 kts 266°
2026-04-23 14:45 40.01042 -98.74561 37638 ft 430 kts 266°
2026-04-23 14:46 40.01124 -98.82339 37633 ft 429 kts 266°
2026-04-23 14:46 40.01199 -98.90117 37630 ft 428 kts 266°
2026-04-23 14:47 40.01270 -98.97874 37635 ft 428 kts 266°
2026-04-23 14:47 40.01335 -99.05637 37640 ft 427 kts 266°
2026-04-23 14:48 40.01396 -99.13380 37664 ft 428 kts 266°
2026-04-23 14:48 40.01451 -99.21124 37651 ft 426 kts 266°
2026-04-23 14:49 40.01501 -99.28854 37669 ft 425 kts 266°
2026-04-23 14:49 40.01546 -99.36554 37664 ft 424 kts 266°
2026-04-23 14:50 40.01585 -99.44197 37658 ft 424 kts 266°
2026-04-23 14:50 40.01619 -99.51893 37667 ft 424 kts 265°
2026-04-23 14:51 40.01648 -99.59592 37685 ft 425 kts 265°
2026-04-23 14:51 40.01672 -99.67305 37688 ft 425 kts 265°
2026-04-23 14:52 40.01691 -99.75018 37701 ft 425 kts 265°
2026-04-23 14:52 40.01705 -99.82728 37719 ft 425 kts 265°
2026-04-23 14:53 40.01714 -99.90465 37724 ft 426 kts 265°
2026-04-23 14:53 40.01717 -99.98202 37717 ft 427 kts 265°
2026-04-23 14:54 40.01716 -100.05943 37710 ft 427 kts 265°
2026-04-23 14:54 40.01710 -100.13699 37701 ft 427 kts 265°
2026-04-23 14:55 40.01698 -100.21445 37726 ft 427 kts 265°
2026-04-23 14:55 40.01681 -100.29195 37691 ft 427 kts 265°
2026-04-23 14:56 40.01659 -100.36944 37723 ft 427 kts 265°
2026-04-23 14:56 40.01632 -100.44688 37728 ft 427 kts 265°
2026-04-23 14:57 40.01600 -100.52432 37734 ft 427 kts 264°
2026-04-23 14:57 40.01562 -100.60119 37746 ft 427 kts 265°
2026-04-23 14:58 40.01519 -100.67866 37724 ft 427 kts 265°
2026-04-23 14:58 40.01472 -100.75614 37713 ft 427 kts 265°
2026-04-23 14:59 40.01446 -100.79492 39023 ft 427 kts 265°
2026-04-23 14:59 40.01419 -100.83360 39305 ft 427 kts 264°
2026-04-23 14:59 40.01391 -100.87235 39544 ft 427 kts 264°
2026-04-23 14:59 40.01361 -100.91116 39762 ft 427 kts 264°
2026-04-23 15:00 40.01330 -100.94994 39873 ft 427 kts 264°
2026-04-23 15:00 40.01298 -100.98863 39875 ft 427 kts 264°
2026-04-23 15:00 40.01229 -101.06619 39874 ft 427 kts 264°
2026-04-23 15:01 40.01156 -101.14365 39880 ft 427 kts 264°
2026-04-23 15:01 40.01117 -101.18239 39740 ft 427 kts 264°
2026-04-23 15:01 40.01077 -101.22119 39529 ft 427 kts 264°
2026-04-23 15:02 40.01050 -101.24688 39367 ft 427 kts 264°
2026-04-23 15:02 40.00994 -101.29861 37700 ft 427 kts 264°
2026-04-23 15:02 40.00903 -101.37635 37702 ft 428 kts 264°
2026-04-23 15:03 40.00809 -101.45400 37691 ft 429 kts 264°
2026-04-23 15:03 40.00709 -101.53181 37711 ft 429 kts 264°
2026-04-23 15:04 40.00604 -101.60958 37727 ft 429 kts 264°
2026-04-23 15:04 40.00494 -101.68727 37807 ft 429 kts 264°
2026-04-23 15:05 40.00380 -101.76499 37755 ft 427 kts 264°
2026-04-23 15:05 40.00262 -101.84161 37746 ft 424 kts 264°
2026-04-23 15:06 40.00138 -101.91837 37741 ft 422 kts 264°
2026-04-23 15:06 40.00025 -101.99480 37727 ft 422 kts 265°
2026-04-23 15:07 40.00493 -102.07149 37761 ft 425 kts 270°
2026-04-23 15:07 40.01043 -102.14802 37711 ft 422 kts 269°
2026-04-23 15:08 40.01473 -102.21127 37683 ft 420 kts 269°
2026-04-23 15:09 40.02237 -102.32490 37684 ft 418 kts 269°
2026-04-23 15:09 40.02741 -102.40042 37681 ft 419 kts 269°
2026-04-23 15:10 40.03244 -102.47627 37699 ft 421 kts 269°
2026-04-23 15:10 40.03744 -102.55258 37697 ft 423 kts 269°
2026-04-23 15:11 40.04243 -102.62930 37694 ft 425 kts 269°
2026-04-23 15:11 40.04741 -102.70649 37692 ft 427 kts 269°
2026-04-23 15:12 40.05233 -102.78359 37691 ft 427 kts 269°
2026-04-23 15:12 40.05722 -102.86110 37688 ft 428 kts 269°
2026-04-23 15:13 40.06205 -102.93868 37679 ft 429 kts 269°
2026-04-23 15:13 40.06686 -103.01637 37681 ft 429 kts 269°
2026-04-23 15:14 40.07160 -103.09401 37681 ft 429 kts 269°
2026-04-23 15:14 40.07629 -103.17172 37693 ft 430 kts 269°
2026-04-23 15:14 40.07858 -103.21013 37835 ft 430 kts 269°
2026-04-23 15:15 40.08090 -103.24907 37830 ft 430 kts 269°
2026-04-23 15:15 40.08552 -103.32746 37817 ft 431 kts 269°
2026-04-23 15:16 40.09005 -103.40503 37793 ft 431 kts 269°
2026-04-23 15:16 40.09454 -103.48290 37761 ft 431 kts 269°
2026-04-23 15:17 40.09902 -103.56161 37728 ft 431 kts 269°
2026-04-23 15:17 40.10341 -103.63955 37754 ft 430 kts 269°
2026-04-23 15:18 40.10771 -103.71699 37747 ft 431 kts 269°
2026-04-23 15:18 40.11203 -103.79554 37749 ft 431 kts 269°
2026-04-23 15:19 40.11627 -103.87371 37780 ft 432 kts 268°
2026-04-23 15:19 40.12046 -103.95201 37737 ft 431 kts 268°
2026-04-23 15:20 40.12459 -104.03000 37718 ft 430 kts 268°
2026-04-23 15:20 40.12867 -104.10803 37662 ft 430 kts 268°
2026-04-23 15:21 40.13267 -104.18582 37663 ft 429 kts 268°
2026-04-23 15:21 40.13663 -104.26361 37668 ft 430 kts 268°
2026-04-23 15:22 40.14054 -104.34124 37664 ft 431 kts 268°
2026-04-23 15:22 40.14278 -104.41938 37666 ft 428 kts 263°
2026-04-23 15:23 40.14020 -104.49706 37673 ft 429 kts 263°
2026-04-23 15:23 40.13803 -104.57506 37665 ft 430 kts 263°
2026-04-23 15:24 40.13592 -104.65306 37656 ft 430 kts 263°
2026-04-23 15:24 40.13374 -104.73099 37660 ft 430 kts 263°
2026-04-23 15:25 40.13149 -104.80921 37668 ft 430 kts 263°
2026-04-23 15:25 40.12918 -104.88730 37655 ft 430 kts 263°
2026-04-23 15:26 40.12682 -104.96534 37659 ft 430 kts 263°
2026-04-23 15:26 40.12561 -105.00434 37818 ft 430 kts 263°
2026-04-23 15:26 40.12440 -105.04334 37835 ft 429 kts 263°
2026-04-23 15:27 40.12194 -105.12126 37844 ft 429 kts 263°
2026-04-23 15:27 40.11942 -105.19902 37842 ft 428 kts 263°
2026-04-23 15:28 40.11686 -105.27671 37847 ft 429 kts 263°
2026-04-23 15:28 40.11424 -105.35450 37808 ft 428 kts 264°
2026-04-23 15:29 40.11159 -105.43212 37764 ft 427 kts 263°
2026-04-23 15:29 40.10889 -105.50948 37767 ft 426 kts 263°
2026-04-23 15:30 40.10612 -105.58688 37839 ft 426 kts 263°
2026-04-23 15:30 40.10334 -105.66363 37828 ft 428 kts 264°
2026-04-23 15:30 40.10184 -105.70333 37969 ft 437 kts 264°
2026-04-23 15:31 40.10032 -105.74341 37994 ft 445 kts 264°
2026-04-23 15:31 40.09726 -105.82473 38036 ft 448 kts 264°
2026-04-23 15:32 40.09422 -105.90535 38046 ft 447 kts 264°
2026-04-23 15:32 40.09266 -105.94582 37832 ft 446 kts 264°
2026-04-23 15:32 40.09105 -105.98678 37828 ft 446 kts 264°
2026-04-23 15:33 40.08780 -106.06794 37837 ft 458 kts 265°
2026-04-23 15:33 40.08439 -106.15206 37855 ft 465 kts 265°
2026-04-23 15:34 40.08092 -106.23634 37846 ft 465 kts 265°
2026-04-23 15:34 40.07736 -106.32107 37844 ft 463 kts 265°
2026-04-23 15:35 40.07379 -106.40484 37844 ft 461 kts 265°
2026-04-23 15:35 40.07018 -106.48834 37837 ft 459 kts 265°
2026-04-23 15:36 40.06650 -106.57122 37859 ft 457 kts 265°
2026-04-23 15:36 40.06282 -106.65361 37863 ft 457 kts 265°
2026-04-23 15:37 40.05905 -106.73640 37876 ft 457 kts 265°
2026-04-23 15:37 40.05585 -106.80568 37864 ft 456 kts 265°
2026-04-23 15:38 40.05135 -106.90156 37870 ft 455 kts 265°
2026-04-23 15:38 40.04742 -106.98396 37893 ft 454 kts 265°
2026-04-23 15:39 40.04344 -107.06614 37928 ft 454 kts 266°
2026-04-23 15:39 40.03941 -107.14823 37901 ft 452 kts 266°
2026-04-23 15:40 40.03533 -107.23001 37925 ft 451 kts 266°
2026-04-23 15:40 40.03121 -107.31168 37918 ft 451 kts 266°
2026-04-23 15:41 40.02704 -107.39320 37947 ft 451 kts 265°
2026-04-23 15:41 40.02278 -107.47493 37935 ft 453 kts 266°
2026-04-23 15:42 40.01846 -107.55696 37945 ft 453 kts 266°
2026-04-23 15:42 40.01408 -107.63912 37934 ft 454 kts 265°
2026-04-23 15:43 40.00962 -107.72138 37932 ft 455 kts 265°
2026-04-23 15:43 40.00511 -107.80372 37931 ft 455 kts 266°
2026-04-23 15:43 40.00284 -107.84477 38034 ft 455 kts 266°
2026-04-23 15:44 40.00055 -107.88599 38031 ft 454 kts 266°
2026-04-23 15:44 39.99594 -107.96797 38034 ft 453 kts 265°
2026-04-23 15:45 39.99126 -108.04999 38012 ft 453 kts 265°
2026-04-23 15:45 39.98657 -108.13133 37991 ft 453 kts 265°
2026-04-23 15:46 39.98176 -108.21375 37960 ft 453 kts 265°
2026-04-23 15:46 39.97696 -108.29501 37926 ft 453 kts 265°
2026-04-23 15:47 39.97208 -108.37676 37917 ft 452 kts 265°
2026-04-23 15:47 39.96713 -108.45847 37916 ft 452 kts 265°
2026-04-23 15:48 39.96214 -108.54012 37906 ft 451 kts 265°
2026-04-23 15:48 39.95709 -108.62155 37910 ft 451 kts 265°
2026-04-23 15:49 39.95199 -108.70304 37913 ft 451 kts 265°
2026-04-23 15:49 39.94684 -108.78441 37907 ft 451 kts 265°
2026-04-23 15:50 39.94163 -108.86566 37912 ft 449 kts 266°
2026-04-23 15:50 39.93640 -108.94663 37910 ft 448 kts 266°
2026-04-23 15:51 39.93060 -109.02724 37898 ft 447 kts 262°
2026-04-23 15:51 39.91992 -109.10700 37905 ft 447 kts 261°
2026-04-23 15:52 39.90932 -109.18660 37905 ft 445 kts 262°
2026-04-23 15:52 39.89886 -109.26580 37910 ft 444 kts 262°
2026-04-23 15:53 39.89013 -109.33161 37904 ft 443 kts 262°
2026-04-23 15:53 39.87960 -109.41056 37904 ft 442 kts 262°
2026-04-23 15:54 39.86904 -109.48930 37899 ft 442 kts 262°
2026-04-23 15:54 39.85842 -109.56804 37910 ft 441 kts 262°
2026-04-23 15:55 39.84778 -109.64645 37910 ft 440 kts 262°
2026-04-23 15:55 39.83708 -109.72498 37920 ft 440 kts 262°
2026-04-23 15:56 39.82633 -109.80339 37907 ft 440 kts 261°
2026-04-23 15:56 39.81554 -109.88180 37932 ft 441 kts 261°
2026-04-23 15:57 39.80464 -109.96048 37947 ft 442 kts 261°
2026-04-23 15:57 39.79372 -110.03904 37963 ft 443 kts 261°
2026-04-23 15:58 39.78272 -110.11774 37972 ft 446 kts 261°
2026-04-23 15:58 39.77157 -110.19732 37974 ft 448 kts 261°
2026-04-23 15:59 39.76036 -110.27706 37995 ft 449 kts 261°
2026-04-23 15:59 39.74909 -110.35672 38011 ft 449 kts 261°
2026-04-23 16:00 39.73774 -110.43667 38006 ft 449 kts 261°
2026-04-23 16:00 39.72638 -110.51616 38032 ft 447 kts 261°
2026-04-23 16:01 39.71502 -110.59525 38020 ft 444 kts 261°
2026-04-23 16:01 39.70371 -110.67367 38084 ft 441 kts 261°
2026-04-23 16:02 39.69238 -110.75179 38087 ft 439 kts 261°
2026-04-23 16:02 39.68105 -110.82964 38084 ft 439 kts 261°
2026-04-23 16:03 39.66967 -110.90732 38071 ft 437 kts 261°
2026-04-23 16:03 39.65830 -110.98463 38069 ft 436 kts 261°
2026-04-23 16:04 39.64692 -111.06175 38065 ft 435 kts 261°
2026-04-23 16:04 39.63531 -111.13884 38069 ft 436 kts 259°
2026-04-23 16:05 39.62107 -111.20160 38071 ft 437 kts 255°
2026-04-23 16:05 39.59978 -111.28947 38071 ft 436 kts 255°
2026-04-23 16:06 39.58187 -111.36455 38069 ft 437 kts 255°
2026-04-23 16:06 39.56386 -111.43980 38070 ft 437 kts 255°
2026-04-23 16:07 39.54579 -111.51497 38073 ft 436 kts 255°
2026-04-23 16:07 39.52770 -111.58993 38074 ft 436 kts 255°
2026-04-23 16:08 39.50967 -111.66439 38052 ft 435 kts 255°
2026-04-23 16:08 39.49155 -111.73898 38057 ft 435 kts 255°
2026-04-23 16:09 39.47333 -111.81382 38058 ft 435 kts 255°
2026-04-23 16:09 39.45507 -111.88855 38056 ft 435 kts 255°
2026-04-23 16:10 39.43677 -111.96315 38045 ft 435 kts 255°
2026-04-23 16:10 39.41842 -112.03778 38045 ft 435 kts 255°
2026-04-23 16:11 39.40004 -112.11234 38028 ft 434 kts 255°
2026-04-23 16:11 39.38170 -112.18641 38030 ft 432 kts 255°
2026-04-23 16:12 39.36337 -112.26025 38041 ft 431 kts 255°
2026-04-23 16:12 39.34504 -112.33387 38033 ft 430 kts 255°
2026-04-23 16:13 39.32670 -112.40741 38034 ft 430 kts 255°
2026-04-23 16:13 39.29960 -112.51775 38022 ft 428 kts 257°
2026-04-23 16:14 39.28633 -112.59232 38027 ft 426 kts 259°
2026-04-23 16:14 39.27279 -112.66684 38034 ft 426 kts 258°
2026-04-23 16:15 39.25915 -112.74116 38037 ft 426 kts 258°
2026-04-23 16:15 39.24546 -112.81561 38032 ft 426 kts 258°
2026-04-23 16:16 39.23175 -112.89000 38034 ft 426 kts 258°
2026-04-23 16:16 39.21798 -112.96439 38030 ft 427 kts 258°
2026-04-23 16:17 39.20417 -113.03877 38036 ft 427 kts 258°
2026-04-23 16:17 39.19030 -113.11321 38029 ft 427 kts 258°
2026-04-23 16:18 39.17638 -113.18756 38039 ft 426 kts 258°
2026-04-23 16:18 39.16246 -113.26167 38033 ft 425 kts 258°
2026-04-23 16:19 39.14851 -113.33564 38038 ft 425 kts 258°
2026-04-23 16:19 39.13453 -113.40950 38053 ft 425 kts 258°
2026-04-23 16:20 39.12048 -113.48361 38032 ft 427 kts 258°
2026-04-23 16:20 39.10628 -113.55795 38040 ft 427 kts 258°
2026-04-23 16:21 39.09209 -113.63208 38047 ft 427 kts 258°
2026-04-23 16:21 39.07792 -113.70588 38047 ft 428 kts 258°
2026-04-23 16:22 39.06358 -113.78028 38033 ft 428 kts 258°
2026-04-23 16:22 39.04920 -113.85458 38059 ft 428 kts 258°
2026-04-23 16:23 39.03478 -113.92883 38041 ft 428 kts 258°
2026-04-23 16:23 39.02029 -114.00310 38038 ft 428 kts 258°
2026-04-23 16:24 39.00580 -114.07719 38037 ft 427 kts 257°
2026-04-23 16:24 38.99125 -114.15127 38049 ft 427 kts 257°
2026-04-23 16:25 38.97669 -114.22520 38054 ft 426 kts 257°
2026-04-23 16:25 38.96208 -114.29904 38055 ft 426 kts 257°
2026-04-23 16:26 38.94743 -114.37285 38058 ft 427 kts 257°
2026-04-23 16:26 38.93272 -114.44671 38058 ft 426 kts 257°
2026-04-23 16:27 38.91798 -114.52040 38074 ft 425 kts 257°
2026-04-23 16:27 38.90324 -114.59387 38075 ft 424 kts 257°
2026-04-23 16:28 38.88849 -114.66710 38085 ft 424 kts 257°
2026-04-23 16:28 38.87369 -114.74038 38074 ft 424 kts 257°
2026-04-23 16:29 38.85881 -114.81380 38080 ft 425 kts 257°
2026-04-23 16:29 38.84389 -114.88708 38074 ft 425 kts 257°
2026-04-23 16:30 38.82894 -114.96031 38080 ft 425 kts 257°
2026-04-23 16:30 38.81389 -115.03378 38059 ft 425 kts 257°
2026-04-23 16:31 38.79893 -115.10655 38072 ft 425 kts 257°
2026-04-23 16:31 38.78382 -115.17974 38075 ft 424 kts 257°
2026-04-23 16:32 38.76868 -115.25288 38074 ft 424 kts 257°
2026-04-23 16:32 38.75358 -115.32556 38086 ft 425 kts 257°
2026-04-23 16:33 38.73861 -115.39727 38073 ft 403 kts 257°
2026-04-23 16:33 38.72375 -115.46828 38102 ft 422 kts 257°
2026-04-23 16:34 38.70836 -115.54179 38092 ft 429 kts 257°
2026-04-23 16:34 38.69285 -115.61542 38086 ft 428 kts 257°
2026-04-23 16:35 38.67734 -115.68878 38084 ft 425 kts 257°
2026-04-23 16:35 38.66189 -115.76163 38090 ft 424 kts 257°
2026-04-23 16:36 38.64643 -115.83433 38096 ft 423 kts 257°
2026-04-23 16:36 38.63095 -115.90688 38089 ft 423 kts 257°
2026-04-23 16:37 38.61544 -115.97932 38083 ft 422 kts 257°
2026-04-23 16:37 38.59987 -116.05181 38091 ft 422 kts 257°
2026-04-23 16:38 38.58428 -116.12414 38094 ft 422 kts 257°
2026-04-23 16:38 38.56864 -116.19646 38097 ft 422 kts 257°
2026-04-23 16:39 38.55297 -116.26871 38078 ft 422 kts 257°
2026-04-23 16:39 38.53725 -116.34090 38095 ft 421 kts 257°
2026-04-23 16:40 38.52421 -116.40065 38108 ft 420 kts 256°
2026-04-23 16:40 38.50590 -116.48425 38102 ft 420 kts 257°
2026-04-23 16:41 38.49267 -116.54452 38110 ft 421 kts 257°
2026-04-23 16:41 38.47681 -116.61646 38095 ft 421 kts 257°
2026-04-23 16:42 38.46094 -116.68822 38104 ft 421 kts 256°
2026-04-23 16:42 38.44502 -116.76003 38120 ft 420 kts 257°
2026-04-23 16:43 38.42916 -116.83133 38108 ft 421 kts 256°
2026-04-23 16:43 38.41313 -116.90316 38111 ft 421 kts 256°
2026-04-23 16:44 38.39708 -116.97482 38114 ft 421 kts 256°
2026-04-23 16:44 38.38098 -117.04653 38112 ft 420 kts 256°
2026-04-23 16:45 38.36485 -117.11812 38119 ft 420 kts 256°
2026-04-23 16:45 38.34871 -117.18961 38102 ft 420 kts 256°
2026-04-23 16:46 38.33253 -117.26105 38109 ft 419 kts 256°
2026-04-23 16:46 38.32087 -117.33342 38113 ft 417 kts 263°
2026-04-23 16:47 38.31144 -117.40633 38109 ft 417 kts 262°
2026-04-23 16:47 38.30161 -117.47902 38095 ft 417 kts 262°
2026-04-23 16:48 38.29175 -117.55166 38106 ft 416 kts 262°
2026-04-23 16:48 38.28192 -117.62416 38110 ft 416 kts 262°
2026-04-23 16:49 38.27206 -117.69671 38109 ft 416 kts 262°
2026-04-23 16:49 38.26215 -117.76922 38110 ft 416 kts 262°
2026-04-23 16:50 38.25227 -117.84127 38106 ft 416 kts 262°
2026-04-23 16:50 38.24227 -117.91377 38105 ft 416 kts 262°
2026-04-23 16:51 38.23221 -117.98633 38107 ft 417 kts 262°
2026-04-23 16:51 38.22212 -118.05887 38106 ft 417 kts 262°
2026-04-23 16:52 38.21198 -118.13135 38102 ft 415 kts 262°
2026-04-23 16:52 38.20185 -118.20345 38107 ft 414 kts 261°
2026-04-23 16:53 38.19167 -118.27544 38115 ft 413 kts 261°
2026-04-23 16:53 38.18147 -118.34750 38117 ft 416 kts 261°
2026-04-23 16:54 38.17117 -118.41986 38097 ft 417 kts 261°
2026-04-23 16:54 38.16077 -118.49245 38121 ft 417 kts 261°
2026-04-23 16:55 38.15033 -118.56514 38116 ft 419 kts 261°
2026-04-23 16:55 38.13980 -118.63803 38115 ft 419 kts 261°
2026-04-23 16:56 38.12926 -118.71084 38130 ft 419 kts 261°
2026-04-23 16:56 38.11869 -118.78351 38156 ft 418 kts 261°
2026-04-23 16:57 38.10823 -118.85605 38150 ft 417 kts 261°
2026-04-23 16:57 38.09776 -118.92846 38162 ft 417 kts 261°
2026-04-23 16:58 38.08727 -119.00063 38158 ft 415 kts 261°
2026-04-23 16:58 38.07677 -119.07250 38168 ft 414 kts 261°
2026-04-23 16:59 38.06625 -119.14415 38183 ft 413 kts 261°
2026-04-23 16:59 38.05570 -119.21577 38180 ft 412 kts 261°
2026-04-23 17:00 38.04513 -119.28724 38168 ft 412 kts 261°
2026-04-23 17:00 38.03449 -119.35880 38188 ft 414 kts 261°
2026-04-23 17:01 38.02376 -119.43065 38153 ft 415 kts 261°
2026-04-23 17:01 38.01307 -119.50189 38169 ft 414 kts 261°
2026-04-23 17:02 38.00228 -119.57361 38152 ft 414 kts 261°
2026-04-23 17:02 37.99148 -119.64518 38151 ft 413 kts 261°
2026-04-23 17:03 37.98061 -119.71669 38138 ft 413 kts 261°
2026-04-23 17:03 37.96961 -119.78812 38139 ft 413 kts 261°
2026-04-23 17:04 37.95856 -119.85945 38136 ft 412 kts 261°
2026-04-23 17:04 37.94746 -119.93084 37627 ft 419 kts 261°
2026-04-23 17:05 37.94179 -119.96726 36852 ft 419 kts 261°
2026-04-23 17:05 37.93614 -120.00342 35859 ft 419 kts 261°
2026-04-23 17:05 37.93052 -120.03933 34790 ft 407 kts 261°
2026-04-23 17:05 37.92513 -120.07345 33736 ft 384 kts 261°
2026-04-23 17:06 37.92003 -120.10569 32663 ft 365 kts 262°
2026-04-23 17:06 37.91515 -120.13672 31669 ft 355 kts 262°
2026-04-23 17:06 37.91035 -120.16740 30841 ft 355 kts 262°
2026-04-23 17:06 37.90547 -120.19857 30024 ft 368 kts 262°
2026-04-23 17:07 37.90041 -120.23090 29138 ft 381 kts 262°
2026-04-23 17:07 37.89515 -120.26425 28404 ft 390 kts 262°
2026-04-23 17:07 37.88994 -120.29684 28293 ft 371 kts 262°
2026-04-23 17:07 37.88487 -120.32834 28157 ft 357 kts 262°
2026-04-23 17:08 37.87994 -120.35935 27844 ft 375 kts 261°
2026-04-23 17:08 37.87446 -120.39288 27221 ft 388 kts 261°
2026-04-23 17:08 37.86893 -120.42578 26627 ft 387 kts 261°
2026-04-23 17:08 37.86324 -120.45933 26049 ft 383 kts 260°
2026-04-23 17:09 37.85772 -120.49177 25496 ft 381 kts 260°
2026-04-23 17:09 37.85217 -120.52450 24955 ft 380 kts 260°
2026-04-23 17:09 37.84659 -120.55750 24411 ft 379 kts 260°
2026-04-23 17:09 37.84117 -120.58954 23882 ft 379 kts 260°
2026-04-23 17:10 37.83556 -120.62268 23260 ft 380 kts 259°
2026-04-23 17:10 37.83007 -120.65502 22714 ft 383 kts 259°
2026-04-23 17:10 37.82438 -120.68850 22161 ft 386 kts 259°
2026-04-23 17:10 37.81881 -120.72125 21628 ft 384 kts 259°
2026-04-23 17:11 37.81319 -120.75416 21100 ft 382 kts 259°
2026-04-23 17:11 37.80762 -120.78682 20582 ft 378 kts 259°
2026-04-23 17:11 37.80211 -120.81894 20354 ft 368 kts 259°
2026-04-23 17:11 37.79676 -120.85006 20180 ft 356 kts 259°
2026-04-23 17:12 37.79154 -120.88031 19793 ft 352 kts 259°
2026-04-23 17:12 37.78632 -120.91034 19381 ft 349 kts 259°
2026-04-23 17:12 37.78111 -120.94027 18960 ft 347 kts 259°
2026-04-23 17:12 37.77595 -120.96989 18534 ft 345 kts 260°
2026-04-23 17:13 37.77081 -120.99940 18057 ft 342 kts 260°
2026-04-23 17:13 37.76570 -121.02866 17607 ft 339 kts 260°
2026-04-23 17:13 37.76064 -121.05760 17180 ft 336 kts 260°
2026-04-23 17:13 37.75563 -121.08624 16782 ft 332 kts 260°
2026-04-23 17:14 37.75069 -121.11460 16391 ft 330 kts 260°
2026-04-23 17:14 37.74576 -121.14297 16001 ft 330 kts 260°
2026-04-23 17:14 37.74085 -121.17116 15619 ft 328 kts 260°
2026-04-23 17:14 37.73596 -121.19911 15233 ft 324 kts 260°
2026-04-23 17:15 37.73113 -121.22679 14856 ft 322 kts 260°
2026-04-23 17:15 37.72641 -121.25391 14486 ft 322 kts 260°
2026-04-23 17:15 37.72157 -121.28150 14118 ft 320 kts 260°
2026-04-23 17:15 37.71679 -121.30870 13701 ft 316 kts 260°
2026-04-23 17:16 37.71187 -121.33583 13188 ft 316 kts 258°
2026-04-23 17:16 37.70540 -121.36216 12785 ft 312 kts 253°
2026-04-23 17:16 37.69816 -121.38777 12410 ft 308 kts 252°
2026-04-23 17:16 37.69087 -121.41324 12045 ft 308 kts 253°
2026-04-23 17:17 37.68367 -121.43875 11680 ft 308 kts 253°
2026-04-23 17:17 37.67662 -121.46404 11304 ft 303 kts 253°
2026-04-23 17:17 37.67203 -121.48063 11078 ft 301 kts 253°
2026-04-23 17:17 37.66287 -121.51396 10645 ft 300 kts 253°
2026-04-23 17:18 37.64947 -121.56300 9900 ft 291 kts 253°
2026-04-23 17:18 37.64314 -121.58612 9518 ft 266 kts 254°
2026-04-23 17:18 37.63737 -121.60719 9229 ft 240 kts 254°
2026-04-23 17:19 37.63223 -121.62601 8987 ft 215 kts 254°
2026-04-23 17:19 37.62752 -121.64316 8646 ft 200 kts 255°
2026-04-23 17:19 37.62312 -121.65921 8183 ft 194 kts 255°
2026-04-23 17:19 37.61884 -121.67474 8002 ft 181 kts 255°
2026-04-23 17:20 37.61518 -121.69004 8080 ft 186 kts 265°
2026-04-23 17:20 37.61453 -121.72304 7603 ft 187 kts 275°
2026-04-23 17:21 37.61467 -121.75566 7155 ft 185 kts 274°
2026-04-23 17:21 37.61468 -121.77192 6974 ft 184 kts 274°
2026-04-23 17:21 37.61468 -121.80451 6523 ft 190 kts 273°
2026-04-23 17:22 37.61467 -121.82109 6265 ft 188 kts 272°
2026-04-23 17:22 37.61445 -121.85319 5826 ft 183 kts 272°
2026-04-23 17:23 37.61427 -121.88586 5388 ft 188 kts 272°
2026-04-23 17:23 37.61416 -121.90234 5148 ft 187 kts 272°
2026-04-23 17:23 37.61391 -121.93438 4691 ft 179 kts 272°
2026-04-23 17:24 37.61379 -121.94990 4488 ft 176 kts 272°
2026-04-23 17:24 37.61368 -121.96550 4297 ft 180 kts 272°
2026-04-23 17:24 37.61343 -121.99689 3853 ft 178 kts 272°
2026-04-23 17:25 37.61315 -122.02843 3436 ft 178 kts 272°
2026-04-23 17:25 37.61301 -122.04340 3220 ft 164 kts 272°
2026-04-23 17:26 37.61279 -122.07000 2848 ft 145 kts 275°
2026-04-23 17:26 37.62016 -122.08774 2604 ft 141 kts 315°
2026-04-23 17:27 37.63320 -122.11158 2137 ft 138 kts 310°
2026-04-23 17:27 37.63920 -122.12077 1971 ft 136 kts 311°
2026-04-23 17:27 37.64532 -122.13002 1772 ft 138 kts 311°
2026-04-23 17:27 37.64941 -122.13616 1652 ft 138 kts 311°
2026-04-23 17:28 37.65560 -122.14544 1463 ft 138 kts 310°
2026-04-23 17:28 37.66177 -122.15470 1285 ft 137 kts 310°
2026-04-23 17:28 37.66787 -122.16384 1097 ft 136 kts 310°
2026-04-23 17:28 37.67398 -122.17301 893 ft 136 kts 310°
2026-04-23 17:29 37.68007 -122.18216 693 ft 136 kts 309°
2026-04-23 17:29 37.68621 -122.19137 528 ft 138 kts 309°
2026-04-23 17:29 37.69859 -122.20981 160 ft 138 kts 308°
2026-04-23 17:30 37.70472 -122.21898 29 ft 132 kts 307°
2026-04-23 17:30 37.71298 -122.23099 12 ft 29 kts 334°
2026-04-23 17:30 37.71486 -122.23144 10 ft 16 kts 24°
2026-04-23 17:31 37.71468 -122.23028 14 ft 15 kts 130°
2026-04-23 17:31 37.71401 -122.22927 16 ft 15 kts 129°
2026-04-23 17:31 37.71329 -122.22814 15 ft 18 kts 129°
2026-04-23 17:31 37.71247 -122.22692 16 ft 18 kts 130°
2026-04-23 17:32 37.71204 -122.22562 14 ft 17 kts 75°
2026-04-23 17:32 37.71280 -122.22440 15 ft 19 kts 47°
2026-04-23 17:32 37.71344 -122.22305 16 ft 18 kts 92°
2026-04-23 17:32 37.71355 -122.22163 16 ft 16 kts 57°
2026-04-23 17:33 37.71430 -122.22051 18 ft 16 kts 47°
2026-04-23 17:33 37.71521 -122.21990 18 ft 17 kts 343°
2026-04-23 17:33 37.71626 -122.22013 19 ft 16 kts 22°
2026-04-23 17:33 37.71685 -122.21968 21 ft 2 kts 352°
2026-04-23 17:34 37.71689 -122.21972 20 ft 1 kts 330°
2026-04-23 17:34 37.71694 -122.21982 20 ft 3 kts 306°
2026-04-23 17:34 37.71715 -122.22018 20 ft 0 kts 308°